Wind_Speed
22 22 22 22 23 23 24 24 23 22 23 23 23 23 23 24 25 25 26 27 27 27 28 29 32 33 34 35 37 38 39 40 41 42 42 42 42 43 43 43 42 44 43 43
23 22 22 23 23 23 23 22 22 21 22 22 23 24 24 25 25 26 26 27 27 28 28 30 32 33 34 35 36 37 38 40 40 41 42 42 43 44 44 45 44 44 45 45
23 23 23 23 24 23 22 22 21 21 22 22 23 23 23 24 25 26 26 27 27 28 29 31 32 33 35 36 36 36 37 39 41 41 42 43 43 43 44 45 45 45 45 46
22 22 21 21 22 22 21 21 21 21 21 22 22 23 22 23 23 24 24 25 26 27 28 29 31 32 33 34 35 36 38 39 41 42 43 43 43 44 45 45 46 46 46 46
22 21 21 21 21 22 21 21 21 21 21 22 22 23 21 22 23 23 23 24 25 26 27 29 30 31 32 33 34 35 37 38 39 41 43 44 44 45 46 46 47 46 47 47
22 22 22 21 22 22 22 22 22 22 22 23 22 23 21 20 20 21 22 23 25 25 26 27 29 30 30 32 33 34 36 37 38 40 42 43 43 44 44 45 46 46 47 47
22 22 22 22 22 22 22 21 22 22 22 22 21 22 21 20 20 21 21 22 24 25 25 26 27 28 30 31 32 34 34 36 38 39 40 41 42 43 44 44 45 47 47 47
22 21 21 21 22 22 21 21 22 22 22 21 21 22 20 19 20 21 22 22 24 25 26 26 27 28 29 31 32 33 34 35 36 38 39 40 40 42 43 44 45 46 46 47
21 22 22 22 22 22 21 21 22 23 23 22 22 21 20 20 20 21 23 24 24 25 26 26 27 28 29 30 31 32 33 34 35 36 38 39 39 40 41 43 44 45 45 46
22 22 22 23 23 23 22 22 22 23 24 23 22 21 20 19 21 22 24 24 24 25 26 26 27 28 29 29 30 31 33 34 35 36 38 39 39 39 40 40 41 42 44 45
22 22 22 22 22 22 22 22 23 24 25 25 24 22 20 20 21 22 23 24 24 25 26 26 27 29 30 30 30 31 32 33 34 35 37 38 39 39 39 40 40 41 41 43
21 22 22 21 21 22 23 23 23 24 24 25 25 22 21 21 21 22 23 24 24 25 25 26 27 28 29 30 30 32 33 33 33 34 35 37 38 39 39 40 40 40 41 42
21 22 22 22 21 22 23 23 24 24 25 24 24 22 22 22 22 23 23 24 25 25 26 26 26 27 28 28 30 31 32 33 34 35 35 36 38 40 40 40 41 41 41 42
22 22 22 22 21 22 22 23 24 25 25 25 23 22 21 23 24 24 25 24 25 25 26 26 26 27 27 28 28 29 30 31 33 35 36 37 38 39 39 40 40 41 41 41
22 22 22 22 22 22 22 23 24 25 25 25 23 23 22 23 25 25 25 26 26 25 26 26 27 27 27 28 28 28 29 29 30 32 34 35 36 38 39 39 40 40 41 41
21 21 21 21 22 23 22 22 23 24 24 24 24 24 24 24 25 25 26 26 25 25 26 27 28 28 27 28 29 29 29 30 30 30 31 32 34 36 37 38 39 40 41 41
21 21 20 20 21 22 22 20 22 23 23 24 24 24 24 24 25 26 25 25 25 25 25 27 27 28 28 28 28 29 29 30 30 30 30 30 31 33 34 36 37 39 40 39
21 21 20 20 21 22 21 21 21 23 22 23 23 23 23 23 24 24 24 24 25 25 24 25 26 27 28 28 28 29 29 29 28 29 29 29 30 31 32 34 35 35 36 36
20 21 21 21 21 22 21 21 22 23 22 23 23 22 23 23 23 24 24 23 23 24 25 25 26 27 27 28 28 27 27 27 27 27 27 28 29 30 31 32 32 32 33 34
20 20 20 21 21 21 20 21 22 23 23 23 23 23 23 23 23 23 24 24 23 24 24 24 25 26 27 27 27 27 26 26 26 27 27 27 28 28 29 30 30 30 31 31
19 19 20 21 21 21 20 21 21 22 23 23 23 23 23 23 23 23 24 24 24 24 24 24 25 26 26 26 26 26 26 25 25 25 26 27 27 27 28 28 28 28 28 28
20 20 20 20 21 20 20 21 22 22 23 23 23 23 23 23 23 24 24 23 23 23 24 25 26 26 26 26 26 25 25 25 25 24 24 25 26 26 26 25 24 25 25 25
20 20 19 20 20 20 21 22 22 22 22 22 22 22 23 23 23 24 24 24 24 24 24 25 26 26 26 26 26 25 24 24 23 23 23 23 22 22 22 21 21 21 22 22
20 20 20 20 20 21 21 22 21 22 22 23 23 23 23 24 24 24 24 24 24 25 25 25 26 26 26 26 25 25 24 23 22 22 21 20 19 19 19 19 19 19 19 19
21 21 21 21 20 21 21 21 22 22 22 23 24 25 25 24 24 24 24 24 24 25 25 25 25 25 25 25 24 23 22 21 21 20 20 19 19 19 19 19 19 18 18 18
21 21 21 20 20 21 21 21 22 23 23 23 24 24 24 25 25 25 24 24 24 24 25 25 24 23 23 22 21 20 19 19 19 19 19 18 18 18 19 19 19 19 19 18
Wind_Direction
274 274 272 272 271 271 272 269 267 266 266 264 260 259 259 258 258 259 259 259 258 257 254 252 250 249 250 250 249 250 249 249 249 248 248 247 248 249 249 249 250 251 252 253
274 272 270 269 269 270 271 269 268 267 267 265 262 260 259 258 258 259 260 260 258 257 254 255 255 253 253 252 251 252 250 250 250 250 249 248 248 249 249 250 251 251 251 251
275 272 268 267 267 269 269 269 268 268 268 266 264 260 258 258 260 261 261 260 260 258 257 256 255 255 256 255 254 253 253 252 251 251 250 249 249 250 250 251 251 252 252 252
271 269 267 267 267 268 268 268 269 268 268 268 267 266 260 260 261 260 260 260 261 260 258 258 257 256 257 257 256 254 254 253 253 252 251 251 251 252 252 253 253 253 253 253
267 265 266 267 267 267 267 266 268 268 268 267 267 269 266 264 262 261 261 261 261 261 260 259 258 258 260 261 259 257 255 254 253 253 253 252 252 252 253 253 253 253 253 253
266 265 267 268 268 266 265 267 267 267 267 267 268 270 269 266 264 261 261 262 264 264 264 263 262 263 264 265 264 261 258 256 255 256 255 254 253 253 253 253 253 253 254 255
265 265 267 266 265 265 264 265 265 266 266 268 269 268 269 269 267 264 264 265 266 266 265 266 267 267 267 267 265 263 260 258 257 257 256 255 254 254 253 253 253 253 254 255
267 265 267 266 265 264 263 263 265 268 270 271 269 268 269 270 269 269 268 269 269 268 268 269 270 271 271 270 267 264 263 261 259 258 258 257 256 255 256 255 254 254 255 256
269 268 268 268 266 263 261 261 263 266 268 270 270 268 267 270 271 270 271 272 272 271 271 272 274 275 274 273 270 267 266 264 261 259 260 259 258 258 257 258 258 257 258 258
271 269 269 268 267 263 261 259 260 262 267 270 271 270 268 270 273 273 273 274 274 272 273 275 277 277 276 275 273 270 268 265 263 261 261 261 259 258 258 260 260 260 259 259
272 271 270 267 266 263 260 257 259 264 266 269 272 271 272 274 275 276 275 275 275 274 274 275 277 278 278 277 275 275 272 269 266 264 263 263 260 259 259 260 262 262 262 261
275 272 272 270 268 264 261 259 260 262 266 268 272 273 272 272 273 275 276 276 276 276 277 277 279 280 279 278 277 275 274 271 268 266 264 263 262 262 261 261 263 263 263 263
277 276 272 270 266 264 262 261 261 262 264 266 270 273 273 273 274 275 277 278 278 278 278 278 279 282 282 281 280 278 276 272 269 267 266 265 264 264 263 263 263 263 264 264
277 275 272 270 268 266 263 263 261 262 263 264 267 273 274 274 275 277 278 279 278 277 278 278 280 282 283 283 282 280 277 274 271 269 268 267 265 264 265 265 264 265 265 266
278 275 273 269 266 265 265 265 262 262 263 265 265 270 273 274 275 278 280 280 280 279 279 280 281 282 283 283 283 283 280 278 275 272 270 267 267 266 267 267 267 266 267 267
278 277 274 270 266 264 266 265 264 264 266 266 265 268 273 277 277 280 281 281 281 280 280 281 282 283 283 283 283 283 284 281 279 276 274 271 269 268 267 268 268 268 269 269
278 278 277 273 269 266 267 268 266 267 268 267 266 269 274 278 280 280 281 282 282 281 280 281 281 282 283 285 285 284 285 284 281 279 277 274 273 272 271 271 271 270 270 270
281 277 276 275 272 269 271 267 267 268 269 269 268 271 276 280 282 283 282 282 282 282 282 282 282 283 284 285 286 286 285 284 282 280 278 277 276 276 275 275 274 273 271 271
283 280 277 276 275 274 271 270 271 271 271 271 270 273 277 280 282 282 283 283 283 282 283 285 285 285 285 286 286 286 286 285 282 280 281 279 278 278 278 276 275 275 273 273
282 279 277 277 277 277 275 273 273 273 272 271 271 274 278 280 282 282 282 284 284 285 286 286 289 290 289 287 286 285 285 285 284 281 281 281 281 279 278 277 276 275 274 273
281 280 278 278 277 277 277 276 275 274 275 274 272 276 279 280 282 283 284 285 286 286 287 289 291 293 291 289 287 285 285 284 285 285 283 282 281 279 279 279 277 275 274 272
282 280 279 279 278 280 279 277 277 276 276 276 276 278 278 280 283 285 288 289 288 288 288 290 292 292 291 290 289 287 286 286 286 286 286 285 283 280 279 280 279 278 276 274
281 280 279 278 280 282 280 279 279 277 277 276 277 279 279 281 284 287 289 290 289 288 289 290 292 291 290 289 289 288 286 286 286 287 287 287 286 282 280 280 280 280 278 274
282 280 277 277 280 282 280 279 279 279 278 277 277 278 280 281 283 286 289 289 289 290 291 292 291 290 289 287 287 287 287 286 285 285 287 288 286 283 281 282 282 282 281 278
280 278 277 278 282 281 280 281 281 280 279 278 277 278 279 282 283 285 287 288 289 290 291 292 291 290 289 288 287 286 286 286 285 284 284 285 285 285 284 285 284 283 282 281
277 276 276 279 281 281 281 283 283 282 281 281 280 280 281 282 283 285 287 288 289 290 291 293 293 292 290 288 287 286 286 285 286 287 288 287 287 287 287 284 282 282 282 283
Height
5692 5693 5692 5691 5690 5690 5689 5689 5689 5689 5688 5688 5688 5688 5688 5688 5688 5689 5689 5690 5691 5692 5692 5693 5695 5696 5698 5699 5702 5703 5705 5708 5710 5712 5714 5716 5718 5720 5723 5725 5727 5729 5730 5732
5687 5686 5686 5684 5683 5683 5683 5682 5683 5683 5682 5681 5680 5681 5681 5681 5681 5682 5682 5683 5684 5684 5685 5686 5687 5688 5689 5690 5692 5693 5695 5697 5699 5701 5703 5705 5707 5709 5712 5714 5716 5718 5720 5721
5680 5680 5678 5678 5677 5677 5677 5677 5677 5676 5676 5674 5674 5674 5675 5674 5674 5675 5675 5676 5677 5677 5678 5678 5679 5679 5680 5681 5682 5684 5685 5687 5688 5690 5692 5694 5696 5698 5700 5703 5704 5706 5708 5710
5673 5673 5672 5672 5672 5671 5671 5671 5671 5670 5669 5668 5668 5667 5668 5668 5667 5668 5668 5669 5669 5670 5670 5670 5671 5671 5671 5672 5672 5673 5674 5676 5677 5679 5680 5682 5684 5687 5689 5691 5693 5695 5697 5699
5666 5666 5666 5666 5666 5665 5665 5665 5664 5664 5663 5662 5662 5660 5662 5661 5661 5661 5662 5662 5662 5662 5662 5663 5663 5663 5663 5663 5662 5662 5662 5664 5666 5667 5669 5670 5673 5675 5677 5679 5681 5683 5685 5687
5660 5659 5659 5659 5659 5659 5659 5659 5658 5657 5656 5656 5656 5655 5655 5655 5655 5655 5655 5655 5655 5655 5655 5655 5655 5655 5654 5654 5653 5652 5652 5653 5655 5656 5657 5659 5661 5663 5665 5667 5669 5671 5673 5675
5653 5653 5653 5653 5653 5652 5653 5653 5652 5650 5650 5650 5650 5648 5650 5650 5649 5649 5649 5648 5648 5648 5647 5647 5647 5646 5646 5645 5644 5643 5643 5644 5645 5646 5647 5648 5650 5651 5653 5655 5657 5659 5661 5663
5646 5647 5646 5646 5646 5646 5646 5646 5647 5645 5644 5644 5644 5642 5645 5644 5643 5643 5642 5642 5641 5640 5640 5639 5639 5638 5637 5636 5635 5635 5634 5635 5635 5636 5637 5637 5639 5640 5642 5644 5646 5648 5650 5651
5639 5640 5640 5639 5639 5639 5639 5640 5640 5639 5638 5638 5637 5638 5639 5639 5638 5637 5636 5635 5634 5633 5633 5632 5631 5630 5629 5628 5627 5626 5626 5626 5626 5627 5627 5628 5629 5630 5631 5633 5635 5636 5638 5639
5632 5633 5633 5633 5632 5632 5633 5634 5633 5632 5631 5631 5631 5632 5633 5633 5632 5631 5630 5628 5627 5626 5625 5624 5623 5622 5621 5619 5618 5617 5617 5617 5617 5617 5617 5618 5619 5620 5621 5622 5624 5625 5626 5627
5626 5626 5626 5626 5626 5626 5626 5627 5626 5626 5626 5625 5625 5629 5628 5627 5625 5624 5623 5622 5620 5619 5618 5617 5615 5614 5612 5611 5609 5608 5608 5607 5607 5607 5607 5607 5608 5609 5611 5612 5613 5614 5615 5616
5619 5619 5618 5619 5619 5619 5619 5620 5620 5620 5620 5619 5619 5624 5621 5620 5619 5617 5616 5615 5613 5612 5610 5609 5607 5606 5604 5602 5601 5599 5598 5598 5597 5597 5597 5597 5597 5598 5600 5601 5601 5602 5603 5604
5613 5612 5612 5612 5614 5613 5612 5613 5613 5613 5613 5613 5613 5617 5614 5613 5612 5610 5609 5607 5606 5604 5603 5601 5600 5598 5596 5594 5592 5590 5589 5588 5587 5587 5587 5587 5587 5587 5588 5589 5589 5590 5591 5592
5606 5606 5606 5607 5605 5605 5606 5606 5606 5605 5605 5606 5607 5608 5608 5606 5604 5603 5602 5600 5598 5597 5595 5594 5592 5591 5588 5586 5584 5582 5580 5579 5577 5577 5576 5576 5577 5577 5577 5577 5578 5578 5579 5580
5600 5599 5599 5598 5598 5598 5598 5599 5599 5599 5599 5600 5601 5600 5600 5598 5597 5596 5594 5592 5591 5590 5588 5587 5585 5583 5581 5578 5576 5574 5572 5570 5568 5567 5566 5566 5566 5566 5566 5566 5566 5567 5567 5568
5593 5593 5592 5592 5592 5591 5591 5592 5592 5592 5592 5593 5593 5593 5593 5591 5590 5589 5587 5585 5584 5582 5581 5579 5577 5575 5573 5571 5569 5566 5564 5562 5560 5558 5557 5556 5556 5556 5556 5556 5556 5556 5556 5556
5587 5587 5586 5586 5585 5584 5585 5586 5586 5586 5586 5586 5586 5587 5585 5584 5583 5581 5580 5578 5576 5575 5573 5571 5569 5568 5566 5563 5561 5559 5556 5554 5552 5550 5548 5547 5547 5546 5546 5545 5545 5545 5544 5544
5582 5581 5580 5579 5579 5578 5582 5580 5580 5579 5579 5579 5579 5579 5578 5576 5575 5574 5572 5571 5569 5567 5566 5564 5562 5560 5558 5555 5553 5551 5548 5546 5544 5542 5540 5539 5538 5537 5536 5535 5534 5534 5533 5532
5576 5575 5574 5573 5572 5572 5575 5574 5573 5572 5573 5572 5572 5571 5571 5569 5568 5568 5565 5563 5561 5560 5558 5556 5554 5552 5549 5547 5545 5543 5541 5538 5536 5534 5532 5531 5529 5528 5527 5526 5525 5524 5523 5522
5570 5569 5569 5567 5566 5567 5570 5568 5566 5566 5566 5566 5565 5564 5564 5563 5562 5562 5559 5557 5555 5553 5551 5549 5547 5544 5542 5539 5537 5535 5533 5531 5529 5527 5525 5523 5521 5520 5518 5517 5516 5515 5514 5513
5564 5563 5563 5561 5560 5560 5562 5561 5560 5561 5561 5559 5558 5557 5557 5556 5555 5554 5552 5550 5548 5546 5544 5542 5539 5537 5534 5532 5529 5527 5525 5524 5522 5520 5518 5515 5514 5512 5510 5509 5507 5506 5506 5505
5558 5557 5557 5555 5554 5557 5555 5554 5554 5553 5552 5552 5551 5550 5550 5549 5548 5546 5544 5543 5541 5539 5537 5535 5533 5530 5527 5525 5522 5520 5518 5516 5514 5512 5510 5508 5506 5504 5503 5501 5500 5499 5498 5498
5552 5552 5551 5551 5551 5550 5548 5547 5546 5546 5545 5545 5544 5544 5543 5542 5541 5539 5537 5536 5534 5532 5530 5528 5526 5523 5520 5518 5515 5513 5511 5509 5507 5506 5503 5501 5500 5498 5496 5495 5494 5493 5492 5491
5547 5546 5545 5544 5544 5543 5542 5540 5540 5539 5538 5538 5537 5536 5536 5535 5533 5532 5530 5529 5527 5525 5523 5521 5518 5516 5513 5511 5508 5506 5504 5502 5501 5499 5497 5495 5494 5492 5491 5489 5488 5487 5486 5485
5540 5539 5538 5537 5537 5536 5535 5534 5533 5532 5531 5530 5530 5529 5528 5527 5526 5525 5523 5521 5520 5518 5516 5514 5511 5508 5506 5504 5501 5500 5498 5496 5495 5493 5491 5490 5489 5487 5486 5484 5483 5482 5481 5480
5533 5533 5532 5532 5531 5530 5529 5528 5527 5526 5525 5524 5523 5522 5521 5520 5519 5517 5516 5514 5512 5510 5508 5506 5504 5501 5499 5497 5495 5493 5492 5491 5489 5488 5486 5485 5483 5482 5480 5479 5478 5476 5475 5474